星链-1587 (STARLINK-1587 )

导读 | 豆包AI

STARLINK-1587是美国太空探索技术公司星链计划的卫星,于2020年8月18日发射,星链旨在构建全球卫星互联网星座,该卫星承担低轨通信组网任务,为全球提供宽带互联网接入服务,在商业通信、应急连通等领域发挥作用,是星链大规模组网进程中的一颗组成卫星。

基本信息
目录编号:
46157
目录名称:
STARLINK-1587
国际标识:
2020-057AS
轨道中心:
EARTH
卫星名称:
星链-1587
卫星全名:
星链-1587 (STARLINK-1587 )
卫星状态:
已陨落 最后检测时间 2026-03-22
发射日期:
2020-08-18 UTC
国别 :
美国 (US)
星等 :
--
轨道信息
数据来源 国际轨道数据
星历时间: 2026-03-22T22:31:07+0800
轨道信息已过期12天
半长轴: 6552.437km
偏心率: 0.0005528
轨道倾角: 53.015°
近地点辐角 324.513°
升交点赤经 148.666°
平近点角 35.554°
近地点: 170.677km
远地点: 177.923km
周期: 87.976分钟
每日圈数: 16.368108
详细信息
固有亮度:
5
最大亮度:
2.5
卫星平台:
Starlink V1.0
覆盖范围:
全球
运营商:
太空探索技术公司
运营商所在国:
美国
制造商(研发单位):
太空探索技术公司
制造商所在国:
美国
使用方式:
暂无
卫星简介
星链(Starlink)计划是由太空探索技术公司(SpaceX)提出的一个巨型低轨卫星互联网星座项目,计划在2019年至2024年间在太空搭建由约1.2万颗卫星组成的“星链”网络,其中1584颗将部署在地球上空550千米处的近地轨道,并从2020年开始工作。该卫星仍在工作。